Theta_e
326 326 326 327 328 327 327 328 328 328 329 329 329 329 329 330 331 331 332 333 332 331 330 330 330 330 329 329 328 328 329 329 330 329 325 324 325 324 322 321 320 320 320 321 323 324 325 325 325 326 325 324 323 319 316 317 317 313 311 314 316 315 314 313 313 314 313 314 314 313 314 315 315 314
326 326 325 326 327 326 326 327 328 328 329 329 329 329 329 329 329 330 332 332 331 331 330 330 330 330 330 330 329 328 328 328 328 329 326 323 325 325 324 322 321 320 320 320 321 323 325 324 324 325 325 324 324 321 316 315 316 314 310 313 316 316 315 313 313 314 313 314 314 313 315 315 314 314
325 325 325 325 325 326 326 327 327 327 327 328 328 328 329 329 329 330 330 331 330 330 330 330 329 330 330 330 329 329 328 328 328 328 326 324 325 326 325 323 322 321 320 320 320 322 324 324 324 325 325 325 324 323 319 315 315 314 311 313 316 316 315 314 314 314 314 314 314 313 315 315 314 314
323 323 322 322 323 324 325 326 326 326 326 326 327 327 328 329 329 329 329 330 330 329 329 330 330 329 329 330 330 329 329 328 328 327 326 326 325 325 325 324 323 322 321 320 320 321 323 324 324 324 325 325 324 324 322 317 314 312 309 312 316 316 315 314 314 314 314 314 313 313 315 315 313 314
320 321 320 320 320 321 323 324 325 325 325 326 326 326 327 328 328 329 329 329 329 328 328 329 329 329 329 329 329 329 329 329 328 327 327 327 326 324 324 324 323 322 321 321 321 320 322 323 324 323 324 325 325 324 323 320 317 312 308 311 316 316 316 315 314 314 314 313 313 313 314 314 314 313
318 319 319 318 318 318 320 321 323 324 325 325 326 326 326 327 327 328 329 329 329 328 327 326 327 328 328 329 329 329 329 329 328 328 327 327 327 326 325 324 324 324 322 321 321 321 321 323 324 324 323 324 324 324 322 320 318 314 308 310 316 317 316 315 314 314 314 313 313 313 313 313 313 313
316 317 317 317 316 316 317 318 320 322 324 324 325 325 326 326 326 326 327 328 328 327 325 325 326 326 327 328 328 328 329 329 329 328 328 327 327 327 326 325 325 325 323 321 321 321 321 322 323 324 323 324 324 323 322 320 319 316 310 308 314 317 316 315 314 313 313 313 313 313 313 313 313 312
314 315 315 315 315 314 314 315 316 318 321 323 324 325 326 326 325 326 326 326 326 326 325 325 325 326 326 327 327 328 328 329 329 328 328 328 327 326 326 326 326 326 325 322 322 322 321 321 322 323 323 324 324 323 323 321 319 318 314 308 311 316 317 316 315 312 311 312 314 313 312 312 313 310
313 313 313 313 313 313 312 312 313 314 317 320 322 323 324 325 325 325 325 325 325 325 326 326 325 325 325 325 326 327 328 329 329 328 328 328 327 326 326 326 326 326 326 324 322 322 321 320 321 322 323 324 324 323 323 322 321 320 317 311 308 313 316 316 316 313 309 310 314 313 312 312 311 305
312 313 313 313 313 312 311 310 310 311 313 315 316 317 320 323 324 325 325 325 324 325 325 325 325 324 324 324 325 326 327 327 327 327 326 327 327 326 325 325 325 325 325 325 324 323 322 320 320 322 323 323 324 323 322 323 322 321 319 315 308 310 315 316 315 315 310 307 310 312 312 310 305 299
312 313 312 312 312 312 311 309 309 309 309 310 311 312 315 318 322 323 324 324 324 323 324 324 324 324 324 324 325 325 325 326 326 326 325 325 325 325 325 324 324 323 324 324 324 324 322 321 320 321 322 322 323 324 322 323 323 321 321 318 311 309 314 316 315 316 313 307 305 309 310 304 298 296
311 312 312 311 311 311 311 309 308 307 307 308 308 310 311 313 317 319 320 321 322 323 323 323 324 324 324 324 324 324 325 325 325 325 325 324 324 324 324 324 323 322 323 323 323 323 323 322 321 321 321 322 323 323 322 322 323 322 321 320 314 309 313 316 314 315 315 310 304 306 306 299 295 297
309 311 311 310 310 310 310 309 308 307 307 306 306 307 308 309 311 314 316 317 319 320 320 320 320 321 321 321 322 322 323 324 324 324 324 324 323 323 323 322 322 322 323 323 322 322 323 322 322 321 321 322 323 322 321 322 322 321 320 321 317 311 311 316 315 314 315 312 306 304 303 297 296 297
307 308 309 308 309 310 310 309 308 307 306 306 305 305 306 306 307 309 311 313 314 315 314 312 313 315 316 316 316 317 319 321 322 323 324 324 323 322 322 321 321 322 322 322 321 321 322 322 322 321 321 322 322 322 321 321 322 321 320 320 318 312 310 314 316 314 315 313 307 305 301 297 297 297
304 305 306 306 308 309 309 309 309 307 306 306 305 305 305 305 305 305 307 309 310 310 309 307 308 309 310 311 311 312 314 317 319 320 322 323 323 322 322 322 321 320 321 321 320 320 321 321 321 321 321 321 321 321 322 321 321 321 320 319 319 313 310 313 315 314 315 313 308 306 303 299 299 298
302 303 304 304 306 306 307 307 308 308 307 306 306 305 305 305 305 305 305 305 306 307 306 305 304 305 306 307 308 309 311 314 317 318 319 321 322 322 321 322 321 320 321 320 318 318 320 320 320 320 320 321 321 321 322 321 321 320 319 319 319 315 311 313 314 314 315 312 307 306 306 304 304 302
301 301 302 302 303 304 306 306 306 307 308 307 306 305 305 304 305 305 305 304 304 304 304 304 303 302 303 304 305 308 310 312 314 316 317 319 321 321 321 322 321 320 320 320 318 317 318 318 319 320 320 320 321 322 322 321 320 320 319 319 319 315 313 313 313 314 314 311 307 307 308 308 307 307
300 300 301 301 301 301 303 304 305 306 307 307 306 305 305 304 303 303 303 303 303 303 303 302 302 302 302 302 304 307 309 310 312 314 315 316 318 320 321 321 321 320 319 319 319 317 316 317 318 318 318 319 320 321 321 321 321 320 319 319 319 316 314 313 313 314 314 311 307 307 307 308 308 308
298 298 299 300 300 300 301 302 303 304 305 306 306 305 304 304 302 301 301 302 302 302 302 301 301 301 301 302 303 305 307 308 309 310 311 313 314 317 319 320 320 319 318 319 318 314 313 315 316 313 314 315 316 318 319 319 320 320 319 319 319 317 314 313 313 313 313 312 309 308 308 308 308 308
298 297 298 298 298 299 299 300 301 302 303 305 305 305 304 304 303 302 301 301 301 301 301 301 301 301 301 301 302 303 304 305 306 307 308 309 311 313 316 318 318 318 318 318 317 311 308 310 311 308 308 310 311 312 314 315 317 318 319 319 318 317 314 312 312 313 313 312 311 309 309 309 309 309
298 297 297 297 298 298 299 299 299 300 302 303 304 304 304 303 303 303 302 301 301 301 300 300 300 300 300 300 301 301 302 303 304 305 306 307 308 309 312 314 315 316 316 315 315 310 305 306 307 304 305 307 307 308 310 310 312 315 317 317 317 316 314 312 312 312 312 312 312 310 310 309 309 309
298 297 297 297 298 298 298 299 299 299 300 302 302 303 303 303 302 302 302 302 302 302 301 301 301 300 300 300 300 300 301 302 303 303 303 305 306 307 308 309 311 314 314 312 312 309 305 306 308 305 304 305 304 304 306 307 308 311 313 314 314 314 313 312 311 311 311 311 311 311 310 310 309 309
298 297 297 297 297 298 298 298 298 298 299 300 300 301 301 302 302 301 301 302 302 302 302 302 302 301 301 301 300 300 300 301 301 302 302 303 304 304 305 306 308 310 309 308 310 309 305 306 309 308 306 304 301 301 304 304 304 307 310 311 312 312 313 313 311 311 311 310 311 311 311 310 309 307
298 297 297 297 297 297 298 298 298 298 298 298 299 299 299 300 300 301 301 301 301 302 302 302 302 302 302 302 301 300 300 300 301 301 302 302 303 303 303 303 305 306 305 305 307 308 307 307 308 308 309 306 301 299 301 303 303 304 307 309 309 309 310 311 309 309 308 307 307 308 307 307 306 305
298 297 297 296 297 297 297 297 297 297 298 298 297 298 298 298 299 300 301 301 301 301 301 301 301 302 302 302 301 301 301 301 301 301 301 302 302 302 302 301 302 303 304 305 307 306 306 307 307 307 307 304 300 298 299 300 300 301 303 305 305 305 306 306 305 304 305 304 303 303 304 304 304 304
297 297 296 296 296 297 296 297 297 297 297 297 297 297 297 297 298 299 300 300 300 300 300 300 300 301 301 301 301 301 301 301 300 300 301 301 302 302 302 301 300 300 302 305 306 306 306 306 306 306 304 301 299 298 298 297 298 298 299 300 301 302 303 303 302 302 303 302 302 302 302 302 303 303
296 296 296 296 296 296 296 296 296 296 297 297 297 296 296 297 298 299 300 300 300 300 300 300 300 300 301 301 301 301 301 301 300 300 300 301 301 301 301 301 301 301 303 304 306 306 306 305 304 304 302 300 299 298 297 297 297 298 299 299 300 301 301 301 301 301 301 301 301 301 301 301 301 301
295 295 295 295 296 296 296 295 295 296 296 296 296 296 296 296 297 298 299 299 299 299 299 300 300 300 300 300 300 300 301 301 300 300 300 300 301 300 300 300 301 301 302 304 304 305 305 305 304 303 301 300 299 298 297 296 296 297 298 298 299 299 299 299 299 299 299 299 299 299 298 298 298 298
294 294 294 294 295 295 295 295 295 295 296 296 296 296 296 296 296 297 298 298 299 299 299 299 299 300 300 300 300 300 300 300 300 300 300 300 300 300 300 300 300 300 301 302 302 303 303 303 302 302 300 299 298 297 296 295 295 295 296 296 296 297 297 297 297 297 297 297 297 296 296 296 296 296
294 294 294 294 294 294 294 294 294 294 295 296 296 296 295 296 296 296 296 297 298 298 298 299 299 299 300 300 300 299 300 300 300 300 300 300 300 299 299 299 299 299 300 300 300 301 301 300 300 299 298 296 295 295 294 294 294 294 294 295 295 295 296 296 296 296 296 296 296 296 296 296 296 296
294 294 294 294 294 294 294 294 294 294 294 294 295 295 295 295 296 295 295 296 296 297 298 298 298 299 299 300 300 299 299 299 299 300 300 300 300 299 298 298 298 297 298 299 299 299 298 298 297 297 296 295 294 294 294 294 294 293 294 294 294 294 295 296 296 297 297 297 297 297 297 297 297 296
294 294 294 294 294 294 294 294 294 294 294 294 294 294 294 295 295 295 295 295 295 295 296 297 297 298 298 299 299 299 298 298 298 299 300 300 299 299 298 298 297 296 296 297 297 298 297 297 296 295 294 294 294 294 294 294 294 294 294 294 294 295 295 296 297 297 298 298 298 297 297 297 297 297
294 294 294 294 294 294 294 294 294 294 294 294 294 293 294 294 295 295 295 295 294 295 295 296 296 297 298 298 299 299 298 297 297 298 299 299 299 298 298 297 297 296 296 295 295 296 295 295 294 294 293 293 293 294 294 294 294 294 295 295 295 296 296 297 297 297 297 298 297 297 297 297 296 297
294 294 294 294 294 294 294 294 294 294 294 294 294 294 293 293 294 294 294 294 294 294 294 295 295 296 296 297 298 298 298 298 297 297 298 298 298 298 298 298 297 296 295 295 294 294 293 293 293 294 294 294 293 293 294 294 294 295 295 296 296 296 296 297 297 297 297 297 297 296 296 295 296 296
293 293 294 294 294 294 294 293 294 294 294 294 294 294 293 293 293 293 293 293 294 294 294 294 295 295 295 296 297 297 298 298 297 297 297 297 298 298 298 297 297 297 296 295 294 294 294 294 294 294 294 294 294 293 293 294 294 294 295 296 296 296 296 296 296 296 296 296 297 296 295 295 295 296
293 293 293 293 293 293 293 293 293 293 293 293 294 294 293 293 293 292 292 292 293 293 293 293 294 294 295 295 296 296 297 297 297 297 298 298 297 297 297 297 297 297 297 296 295 295 295 295 296 295 294 294 294 293 293 293 294 294 294 295 295 296 296 296 296 295 295 295 296 296 294 293 294 293
292 292 292 292 292 292 292 292 292 292 292 292 292 293 293 293 293 293 292 292 292 292 292 293 293 293 294 294 295 295 296 296 297 297 297 297 297 297 297 297 297 297 297 297 296 296 295 295 296 296 295 294 293 293 292 293 294 294 294 294 294 295 295 295 295 295 295 295 295 295 293 292 291 291
291 291 291 291 291 291 291 290 290 290 290 290 290 291 291 292 292 292 292 293 292 292 292 292 292 292 292 293 294 295 295 295 295 296 296 296 297 297 297 297 297 297 297 297 296 296 296 295 295 296 296 296 295 294 293 293 293 293 294 294 294 294 294 294 294 295 295 294 294 293 292 291 290 289
290 290 290 291 291 291 290 290 289 288 288 288 288 288 289 289 290 291 292 292 292 292 292 292 292 291 291 292 293 294 294 294 294 295 295 295 296 296 296 297 297 297 297 297 296 296 296 296 295 295 296 296 296 295 294 293 292 292 292 292 293 294 294 294 294 294 294 293 292 292 291 290 289 289
290 289 289 290 290 290 290 289 289 288 288 287 286 286 286 286 287 288 290 292 292 292 291 291 292 292 291 291 292 292 293 293 293 293 294 294 294 294 295 295 296 296 297 297 297 297 297 296 294 293 294 294 294 293 293 292 291 291 291 291 292 293 293 294 294 294 294 292 292 291 291 290 290 289
290 289 289 289 289 289 289 289 289 288 288 287 286 285 285 285 284 285 286 289 292 292 291 291 291 291 291 291 291 291 292 292 292 292 293 293 293 293 294 294 295 295 295 296 296 296 296 294 292 292 292 292 292 292 292 292 292 291 291 291 291 292 292 293 294 294 294 293 292 292 292 291 291 291
291 290 289 289 289 289 289 289 289 288 288 287 286 285 285 284 284 283 284 286 288 290 291 291 291 291 291 291 291 291 291 292 292 291 292 292 293 293 293 293 294 294 294 295 295 294 293 292 291 291 292 292 292 292 292 292 292 291 291 290 291 291 292 293 293 294 294 293 293 292 292 292 292 292
291 291 290 289 289 289 289 288 288 288 288 287 287 286 285 285 284 284 283 283 284 286 289 290 291 291 290 290 291 291 291 291 291 291 291 291 292 292 293 293 293 293 293 294 293 293 292 292 291 292 292 292 292 292 292 292 291 291 291 291 290 291 291 292 293 294 294 293 293 292 292 292 292 292
292 291 290 290 289 289 289 289 289 288 288 288 287 287 286 286 285 285 284 284 283 283 285 287 290 291 291 290 290 291 291 291 291 291 291 291 291 291 292 292 292 293 293 293 293 293 292 291 291 291 291 291 291 291 291 291 291 291 291 291 290 290 291 292 292 292 292 292 292 291 291 291 291 290
292 292 291 290 290 289 289 289 289 289 289 288 288 288 287 287 286 286 286 286 285 284 283 284 286 289 290 291 290 290 290 291 291 291 291 292 291 291 291 291 292 292 292 292 293 292 292 292 292 292 291 291 291 291 291 291 291 291 290 290 291 291 291 291 291 291 291 290 290 289 289 289 289 289
Wind_Speed
17 17 18 17 16 18 19 17 15 16 18 19 21 22 20 15 9 6 8 6 7 16 21 19 20 24 27 28 30 32 35 37 37 37 37 33 31 34 35 33 33 34 34 34 31 29 30 29 26 25 28 29 25 24 27 27 25 23 24 27 26 25 25 25 26 26 25 25 23 22 22 23 23 22
17 17 18 16 15 18 19 17 16 15 15 17 19 20 21 21 16 9 8 7 8 12 18 21 21 21 25 27 27 28 31 34 37 38 38 37 36 37 35 34 34 34 35 35 33 31 31 31 28 25 26 30 28 25 26 27 27 25 25 27 27 26 26 25 25 26 25 25 24 24 25 25 24 23
17 18 18 17 17 17 17 17 16 17 16 15 17 19 20 21 21 17 11 7 9 12 15 21 24 22 23 25 25 26 26 28 33 38 39 39 39 39 37 36 35 35 35 35 35 34 32 31 30 26 26 30 30 27 26 26 27 27 26 28 29 28 27 26 28 27 26 26 26 26 27 26 25 25
19 19 19 19 18 17 17 17 18 18 18 16 15 16 17 18 21 22 16 9 9 13 14 17 20 22 22 23 24 26 26 25 28 34 38 38 39 39 38 38 37 36 36 36 36 36 34 32 31 28 27 31 32 29 27 26 27 27 28 29 30 29 28 28 29 28 27 27 27 27 27 26 26 25
20 20 20 20 20 19 17 18 18 18 19 18 16 15 15 16 18 20 18 12 9 11 13 12 14 17 19 21 24 26 28 27 27 30 35 37 38 38 38 39 39 38 37 37 37 37 36 34 32 29 28 30 33 33 31 27 27 27 28 31 32 31 29 29 29 30 29 29 27 26 26 25 25 25
21 22 21 22 23 22 19 19 18 18 19 18 17 17 16 16 17 17 17 14 8 6 8 9 10 13 17 22 26 27 28 29 28 30 33 35 37 38 38 39 40 40 39 39 38 38 38 36 32 31 29 29 32 36 34 29 28 27 28 32 34 32 31 30 30 30 30 29 28 27 26 25 25 25
21 22 22 23 25 25 23 22 20 18 19 18 17 18 18 16 18 17 13 11 6 3 4 6 9 11 14 19 24 24 26 28 28 29 33 35 36 38 38 39 40 40 41 40 38 37 37 37 34 32 31 29 30 35 35 31 30 28 27 32 34 33 32 32 31 31 31 30 28 28 26 25 25 24
22 23 23 24 26 27 27 26 24 21 20 19 17 17 17 16 17 16 13 10 8 6 6 7 10 12 12 14 16 18 21 25 26 28 30 33 35 37 38 39 39 40 41 41 39 37 37 38 36 34 33 29 27 31 34 33 31 28 27 31 34 34 33 32 31 30 31 30 28 27 27 26 25 24
23 22 23 23 26 29 31 31 29 26 23 21 19 17 17 16 15 15 13 12 11 10 9 9 10 12 13 13 13 14 17 21 22 25 29 31 34 36 38 38 38 39 40 41 41 39 38 38 38 36 34 31 28 28 31 33 33 31 28 30 33 35 34 33 32 29 30 31 29 28 27 26 25 24
25 24 23 24 26 30 32 31 31 30 27 25 23 21 19 17 15 14 14 12 11 11 11 10 10 11 12 13 14 14 16 19 19 22 26 30 34 35 36 36 37 39 40 42 43 41 38 38 39 37 35 32 30 28 28 31 32 32 31 30 32 36 35 34 33 30 28 30 30 29 27 26 26 25
29 30 27 26 26 28 31 31 31 32 31 30 30 27 23 20 17 15 14 13 11 11 12 10 10 11 11 12 13 13 13 15 18 21 23 26 30 33 34 35 35 37 38 40 43 43 40 38 39 38 36 34 32 30 27 29 31 31 32 31 32 36 36 34 33 32 29 28 29 30 27 26 26 25
30 31 29 28 27 27 30 32 32 32 31 33 35 35 31 26 23 20 19 16 13 12 13 11 11 12 12 12 13 14 12 12 17 23 23 23 26 29 31 32 33 35 36 38 41 43 42 40 39 39 37 35 34 32 30 29 30 31 32 33 33 36 37 35 33 33 30 27 28 29 27 25 26 25
33 33 30 28 27 27 29 31 33 33 34 36 36 37 37 32 27 24 24 23 20 17 16 16 15 14 13 13 13 14 13 13 17 20 21 20 21 24 25 27 31 34 35 37 40 43 44 42 41 40 39 37 36 34 32 32 32 31 32 35 35 36 38 36 34 33 31 27 28 29 26 25 26 25
34 34 32 27 27 28 26 27 31 34 36 38 38 40 41 38 32 27 25 26 25 22 19 20 20 17 16 19 20 17 15 14 14 14 16 18 17 17 16 17 24 31 34 35 37 41 43 43 42 41 41 40 38 37 35 34 34 33 33 35 36 36 38 37 34 33 31 27 27 29 26 24 25 26
30 32 32 31 32 31 25 22 26 30 33 35 38 41 43 42 40 34 28 25 26 24 22 23 24 20 19 23 25 22 22 22 19 15 13 15 17 16 12 10 14 24 32 34 36 39 42 42 41 41 42 42 40 39 38 36 35 34 34 36 38 37 37 37 35 33 31 27 28 30 27 24 24 25
29 30 32 34 36 34 29 24 21 23 27 30 32 36 40 43 43 41 36 29 26 25 25 25 27 25 23 26 28 25 24 23 20 19 18 15 13 14 15 14 14 20 29 33 35 38 41 41 40 39 41 42 42 41 39 36 36 36 36 38 39 37 37 37 35 33 30 27 28 30 28 26 23 23
31 30 29 33 36 35 33 31 25 20 22 26 29 31 34 37 40 41 40 36 31 28 27 28 29 28 25 26 29 29 26 23 20 18 17 17 14 11 15 18 18 19 25 31 32 32 35 38 38 36 37 40 41 42 40 38 37 37 36 38 40 38 37 36 34 33 30 27 28 28 28 26 24 24
32 31 29 29 33 35 34 33 30 24 21 22 27 29 29 31 34 38 38 35 33 31 30 30 29 30 31 31 32 32 29 25 21 19 17 16 15 14 15 18 19 18 21 29 27 21 26 34 34 30 31 35 38 40 41 40 39 36 34 38 41 39 37 35 33 32 29 26 27 27 26 26 25 24
34 34 32 30 33 36 35 33 31 27 22 21 24 26 26 26 29 34 36 34 32 31 32 33 32 34 36 37 37 36 34 31 26 23 23 23 19 16 13 15 17 18 21 26 20 10 15 27 28 22 23 27 29 34 38 39 40 38 34 36 41 40 36 33 32 31 29 26 26 26 25 24 23 23
37 37 35 33 34 36 36 33 32 30 25 23 23 24 24 24 24 27 30 33 32 31 32 33 33 34 35 37 38 38 37 35 32 32 34 33 29 24 14 8 9 12 17 22 19 10 10 18 23 18 14 17 17 22 27 29 34 36 34 35 39 38 34 32 31 30 29 27 25 25 24 24 23 23
34 38 37 35 35 37 36 34 34 33 29 25 24 24 23 24 24 23 24 28 31 32 32 33 33 34 34 35 36 37 38 38 38 40 38 32 29 26 15 8 6 3 5 10 15 14 13 14 21 20 14 12 10 9 14 17 23 28 29 32 37 36 33 31 28 27 28 28 26 26 25 25 24 23
29 34 37 37 35 35 35 35 36 37 34 28 25 24 24 25 26 24 22 23 25 28 31 32 33 36 37 36 36 35 36 38 40 40 35 28 27 26 18 14 14 8 5 6 7 12 14 16 20 19 15 12 11 8 8 11 15 21 24 28 33 33 30 27 26 24 25 26 25 25 25 25 25 24
27 30 33 35 35 33 34 35 37 39 38 33 28 25 24 24 25 23 22 22 22 23 27 29 29 32 34 35 36 36 35 36 38 37 34 32 31 26 21 19 16 8 8 11 5 6 14 17 18 14 10 8 10 10 9 10 12 17 21 25 28 28 27 26 26 26 25 25 25 25 26 26 25 23
24 26 30 33 34 33 33 35 36 38 39 37 33 29 26 24 22 20 20 23 22 21 24 26 26 27 28 29 32 34 33 33 33 34 34 34 32 27 24 22 16 8 10 15 11 2 12 15 13 11 8 7 7 10 12 13 15 18 21 23 24 24 25 25 24 23 22 21 21 23 24 23 22 22
23 24 28 31 32 32 33 34 35 36 37 37 37 34 30 28 25 21 20 22 23 21 23 26 26 26 26 26 28 30 30 29 28 29 30 31 32 29 26 24 20 15 15 16 12 2 6 11 12 12 12 12 12 14 17 17 16 19 22 24 25 26 27 27 26 24 23 21 19 21 23 22 20 21
24 25 27 29 30 30 32 33 34 35 36 36 36 35 33 33 31 25 21 21 23 23 25 27 28 27 26 25 26 27 28 27 27 27 27 27 29 29 25 22 20 19 18 16 11 5 1 6 9 12 15 17 15 16 19 19 18 20 25 26 27 29 31 31 31 29 28 27 23 21 22 23 22 21
26 27 27 27 28 29 31 32 33 34 35 34 34 35 35 35 32 26 22 22 23 23 24 26 27 26 25 24 25 25 26 26 26 27 25 23 26 30 28 23 20 18 17 14 10 6 2 6 5 8 17 25 23 17 15 18 20 25 30 30 29 30 31 32 32 30 28 27 25 23 22 22 23 23
27 27 26 25 26 28 30 32 32 33 33 33 33 34 36 36 34 29 24 24 24 24 25 25 25 25 25 24 23 23 22 23 24 26 25 23 23 27 30 29 25 21 18 16 13 7 3 7 8 8 15 24 26 20 17 19 23 28 33 32 29 28 28 29 31 30 27 26 25 24 24 24 22 23
26 25 25 26 27 29 30 32 33 33 32 31 32 34 35 36 35 31 27 25 24 24 25 24 23 24 24 23 23 22 21 21 23 24 25 24 22 22 27 31 32 29 23 20 17 12 9 11 16 18 18 22 26 27 27 27 26 26 30 31 28 26 26 28 29 29 28 27 25 24 24 24 23 23
27 27 28 30 30 31 32 34 35 34 33 32 32 33 35 35 35 33 30 28 25 24 23 23 23 23 22 22 23 23 22 21 23 23 24 24 24 23 23 26 30 32 29 24 22 21 20 20 24 27 28 29 30 30 31 32 28 25 26 28 27 25 24 25 26 27 26 26 25 24 24 24 23 23
28 28 29 31 32 33 33 33 34 35 36 36 35 34 33 33 33 32 32 31 29 26 23 22 23 22 21 22 23 23 22 22 22 22 22 24 24 23 23 24 26 30 30 28 28 28 28 28 29 31 32 33 32 30 30 32 29 24 22 23 22 21 22 24 25 25 25 25 25 24 23 23 22 22
25 25 26 28 29 31 32 31 30 31 33 35 36 36 34 31 30 31 32 33 33 30 27 26 26 24 23 23 23 22 22 23 23 21 21 22 23 23 24 25 25 26 29 32 32 31 30 29 30 31 30 31 30 29 30 29 24 21 20 19 18 19 21 23 24 23 23 24 23 22 21 20 20 21
20 21 24 25 25 25 27 27 26 27 29 30 32 35 35 32 30 30 31 31 32 32 30 29 29 27 24 24 24 23 22 22 23 24 22 20 22 24 25 25 24 25 28 30 31 32 30 29 29 30 30 30 28 27 26 25 21 20 20 19 17 17 17 19 21 20 21 22 21 19 17 16 18 20
19 19 21 21 20 20 22 23 22 23 25 27 27 29 32 33 32 30 30 30 30 32 31 30 30 29 26 23 23 24 22 20 22 25 23 19 19 23 25 24 23 23 25 26 27 27 27 27 29 31 31 30 29 26 24 22 21 20 19 19 17 16 14 16 18 17 18 20 20 18 16 17 18 20
18 18 18 18 18 18 19 20 19 19 21 23 23 23 26 31 31 30 30 30 29 30 30 30 30 29 26 23 22 22 21 20 20 23 22 20 19 20 22 23 22 21 21 21 22 23 25 26 28 28 26 25 25 23 22 20 19 18 17 17 16 15 14 15 15 13 13 15 16 16 17 19 20 19
16 16 15 16 16 17 17 17 17 18 18 19 19 20 21 24 26 27 28 29 28 28 29 29 29 30 27 23 21 20 20 20 21 22 22 21 19 18 18 20 21 20 19 18 17 19 21 22 23 24 22 19 15 13 14 15 14 13 13 13 12 12 12 12 11 9 8 8 10 13 17 19 20 19
15 15 14 15 15 15 16 16 16 17 17 17 17 18 18 18 21 24 26 27 28 28 28 26 27 28 27 24 20 19 19 19 19 21 22 21 20 18 17 17 17 18 18 17 15 15 16 17 19 20 18 12 6 5 8 11 12 10 9 9 8 8 8 7 6 6 6 7 9 14 19 21 21 19
14 13 13 14 14 14 15 15 15 15 16 16 16 16 16 16 19 22 25 26 27 27 27 26 25 25 26 24 20 18 19 20 19 19 20 20 20 18 17 15 15 13 13 14 14 13 14 14 14 13 11 8 5 4 6 8 9 10 9 7 6 6 6 6 5 6 7 9 12 17 21 21 20 18
14 13 12 12 13 13 13 14 14 14 15 15 15 15 15 16 18 21 23 24 25 25 25 25 25 24 24 23 19 16 17 19 18 17 17 18 18 17 15 15 14 12 11 11 11 11 12 12 11 9 7 7 6 7 8 8 9 9 9 7 5 5 7 8 8 8 9 12 16 20 21 19 18 16
13 13 12 11 12 12 12 12 13 13 14 14 15 15 15 15 17 19 20 21 22 23 23 24 24 23 23 22 19 16 16 17 17 16 15 15 15 15 14 13 13 12 11 10 9 9 10 11 9 6 4 6 7 9 11 11 10 8 6 5 4 6 8 9 10 10 12 16 19 19 17 15 14 13
13 13 13 12 12 12 12 12 12 13 13 14 15 16 16 16 18 19 19 18 18 20 20 21 23 23 22 21 19 17 16 16 16 17 16 15 14 15 15 13 12 13 12 10 10 9 9 10 9 6 8 9 10 10 10 9 8 7 5 4 4 5 7 9 11 11 13 18 19 16 12 11 10 10
12 12 13 13 13 12 12 12 13 13 13 14 15 16 15 16 18 19 18 18 18 18 18 18 20 21 21 20 18 17 15 15 16 17 18 16 14 14 14 14 13 13 12 10 9 9 8 8 8 8 8 8 6 5 6 7 8 8 7 7 6 5 5 7 10 11 15 18 17 14 11 10 8 8
11 11 12 13 14 14 13 13 13 13 14 15 16 16 15 15 17 19 19 19 18 18 16 16 17 18 20 20 18 16 15 15 15 15 16 17 15 13 13 13 12 11 11 10 9 8 7 7 6 5 5 4 2 3 6 8 8 8 8 8 8 8 7 7 8 11 14 15 14 12 11 10 8 6
8 9 10 11 12 12 14 14 14 15 16 16 17 16 15 14 15 17 18 18 18 17 16 15 15 15 17 18 18 17 16 15 14 13 12 13 14 13 12 11 10 10 9 9 8 7 6 6 5 4 4 4 3 5 7 7 7 8 8 8 8 9 10 10 10 10 10 10 10 10 10 10 8 5
6 7 7 9 9 10 12 13 14 15 16 16 16 16 16 15 15 15 16 17 17 17 17 16 14 13 14 14 16 16 16 15 14 12 11 10 11 12 12 12 10 9 8 8 7 6 5 4 4 4 4 3 3 5 6 6 6 8 8 8 8 8 8 8 9 8 7 7 9 9 9 10 9 7
Wind_Direction
357 353 352 351 347 347 346 335 320 308 296 285 274 265 260 259 258 261 254 241 227 224 221 222 227 225 225 227 227 227 228 226 224 225 223 217 216 215 211 210 210 210 210 212 213 211 212 213 212 211 202 196 200 197 196 202 204 198 188 181 182 184 184 180 175 176 178 178 180 179 175 174 179 181
2 359 357 356 350 348 348 343 334 325 311 298 289 281 272 263 255 256 261 251 235 218 214 221 227 226 225 226 225 224 226 226 224 224 222 218 220 221 214 211 212 211 210 213 214 213 213 213 212 213 205 199 202 201 198 203 205 200 190 181 181 186 188 181 176 179 180 180 184 182 178 181 186 187
4 3 0 357 354 351 349 344 341 338 330 318 307 298 285 269 255 249 253 255 240 221 216 225 228 229 229 225 223 224 225 226 224 224 222 220 223 224 219 214 213 213 212 212 214 214 213 213 212 213 209 202 203 203 200 203 205 202 193 184 183 189 191 183 179 182 184 185 187 184 182 186 190 192
9 8 6 3 359 355 352 349 347 345 341 333 327 319 304 284 265 250 243 248 247 230 224 229 228 229 230 225 224 225 226 227 225 223 222 222 223 223 222 220 216 215 215 213 214 214 213 213 212 213 210 204 204 205 203 203 204 203 196 187 185 191 192 185 182 185 187 189 190 187 188 192 194 195
11 9 8 7 5 2 358 356 354 352 349 343 337 336 328 310 290 267 245 242 254 237 227 234 234 230 230 228 228 227 226 226 225 223 223 224 224 222 222 222 219 217 217 216 215 214 214 213 211 213 212 208 207 208 205 203 202 202 196 189 187 190 192 189 187 188 189 191 192 191 193 196 196 198
11 12 11 9 8 6 4 2 359 357 357 354 347 344 341 332 322 299 262 244 250 243 231 241 247 242 238 235 232 228 225 225 224 224 225 226 227 225 223 222 220 219 218 218 218 215 214 213 210 212 214 213 210 207 203 201 201 201 196 191 189 191 195 194 191 192 193 192 193 195 197 198 198 200
12 13 14 12 9 8 7 6 3 1 1 358 354 351 348 342 340 329 296 263 258 268 254 250 253 253 249 242 235 228 225 225 223 223 226 228 228 226 224 222 222 221 218 218 219 218 216 214 212 212 213 215 213 207 204 203 201 200 197 194 193 193 197 199 196 196 197 195 195 198 200 201 201 203
20 19 18 16 14 13 12 10 7 4 4 4 358 354 352 348 347 343 328 305 294 291 280 270 264 260 258 253 243 235 231 228 226 225 226 227 225 224 224 223 223 223 220 217 217 217 217 215 213 212 212 214 213 209 209 208 203 200 199 198 197 195 197 201 201 201 200 197 197 201 203 204 205 206
28 25 23 22 21 21 20 17 14 9 6 8 5 359 356 353 347 347 343 326 308 293 283 280 274 265 263 262 255 246 241 237 234 231 228 227 225 222 222 222 222 222 220 216 214 215 216 216 215 213 212 212 211 208 210 210 206 203 201 200 201 199 198 202 204 203 202 199 198 202 205 206 208 208
35 34 31 31 30 28 27 25 22 20 17 13 11 7 4 0 351 347 347 338 322 308 299 294 288 280 271 265 259 252 247 243 242 239 233 228 225 221 218 218 218 220 220 216 212 212 213 215 215 214 213 212 211 209 207 207 205 205 204 204 204 202 200 202 204 204 204 202 200 202 205 207 208 208
41 42 37 35 34 32 32 31 28 28 26 23 22 19 14 13 11 5 358 349 337 323 315 307 300 296 283 268 264 264 263 259 252 244 234 225 222 219 215 213 213 216 217 215 213 212 211 212 214 214 214 214 213 211 208 206 204 204 207 207 205 204 203 203 203 204 205 204 202 202 204 206 206 204
42 42 40 38 39 39 38 37 36 35 34 33 31 29 27 25 24 25 25 16 0 341 329 323 318 310 295 279 274 274 276 271 255 244 233 222 217 213 212 212 211 211 212 211 211 211 210 211 212 213 214 214 213 212 210 209 206 204 207 209 207 206 206 204 203 204 205 206 204 201 202 204 202 201
45 45 43 39 41 46 46 43 44 45 44 42 39 37 36 33 29 29 33 32 27 19 11 6 1 348 331 321 311 295 279 269 259 244 229 224 221 212 208 210 213 214 212 209 209 209 208 207 209 211 211 212 212 212 210 209 208 206 206 208 207 207 207 205 203 204 206 206 204 201 201 202 199 199
44 45 44 40 39 44 46 44 46 49 50 49 48 47 45 43 38 33 33 35 36 36 34 27 23 19 10 5 2 352 338 321 299 264 231 224 221 210 204 206 214 218 215 208 207 208 206 205 206 207 209 209 210 210 209 208 207 206 206 207 206 206 207 206 202 203 205 205 204 200 198 197 197 197
40 40 41 41 41 42 42 41 42 47 50 51 51 52 52 52 49 45 39 36 37 39 39 33 29 26 16 9 9 6 359 351 338 318 281 245 218 202 200 203 210 217 215 208 204 205 205 204 202 204 207 208 208 209 210 210 209 207 205 206 205 205 206 205 203 203 205 204 202 199 196 194 194 196
41 40 39 42 43 43 46 46 41 40 45 50 51 51 53 55 56 55 52 48 43 40 41 39 34 28 17 10 11 9 3 354 344 338 325 293 248 212 207 211 213 216 214 207 203 204 204 203 201 203 205 207 209 210 210 211 210 208 205 204 204 204 205 204 202 202 203 202 200 199 197 195 194 195
43 42 39 41 42 42 45 49 44 36 39 48 52 52 52 53 55 57 57 56 54 50 47 45 38 31 25 17 16 17 14 6 355 347 338 319 295 255 229 226 225 221 212 204 202 203 202 201 200 201 203 207 210 210 210 211 210 207 205 203 201 202 203 202 201 201 201 199 198 198 198 198 198 196
44 43 40 39 40 41 43 47 46 40 35 43 49 50 49 49 50 53 53 52 53 53 52 51 44 39 35 30 28 29 29 25 14 3 358 348 326 297 266 245 238 235 218 205 199 195 195 197 195 192 197 205 208 208 210 212 209 204 204 203 201 201 201 199 199 200 198 196 195 196 197 197 197 197
48 47 45 42 41 42 43 45 48 46 39 40 45 46 46 46 47 49 50 51 52 52 53 53 50 46 43 40 38 37 36 36 32 28 27 22 7 340 302 259 242 239 225 209 198 168 173 186 181 176 189 199 203 205 209 212 209 205 203 203 202 200 197 196 196 196 197 195 193 194 196 196 196 196
51 51 50 47 45 44 43 43 47 48 44 42 44 44 44 44 43 44 48 52 55 54 52 51 50 47 46 44 42 39 37 36 35 36 35 31 24 15 353 297 249 231 219 208 193 145 129 164 159 147 168 185 188 199 205 208 209 206 202 202 201 196 192 193 193 192 195 196 193 193 195 196 196 196
52 52 52 51 49 47 45 43 45 48 46 43 42 42 42 42 41 39 40 45 49 50 48 47 45 43 41 40 38 37 37 35 36 37 34 26 25 28 18 346 325 260 193 184 174 141 112 137 138 119 122 143 141 165 186 193 203 203 198 198 198 192 187 187 187 189 195 197 195 196 198 199 200 201
52 52 52 53 52 50 48 46 47 50 49 44 41 40 40 41 40 35 32 34 37 41 42 42 41 40 38 37 35 34 35 35 38 41 36 27 28 33 28 12 1 1 48 74 132 134 120 136 137 116 104 100 83 88 137 158 178 189 190 191 192 187 181 179 177 182 191 196 197 199 200 201 201 198
53 52 51 53 54 53 52 50 50 52 52 49 44 41 40 41 38 33 29 29 30 32 35 36 37 36 36 36 34 33 34 35 37 40 38 34 34 32 28 25 21 8 359 1 3 143 144 147 143 131 116 84 60 66 96 117 138 159 171 178 181 178 176 177 178 180 185 190 194 196 196 195 191 183
51 50 50 52 54 54 54 53 52 52 53 52 49 46 42 38 34 29 29 31 31 31 32 32 32 32 32 32 32 32 33 33 34 36 36 35 35 32 27 27 28 18 350 347 347 151 158 155 148 142 137 120 92 81 85 98 116 131 147 160 164 164 165 167 167 168 167 168 174 178 178 178 176 167
52 50 50 52 54 54 54 54 53 52 52 52 52 49 46 44 41 36 32 32 33 34 34 34 33 32 31 30 30 30 32 33 33 34 35 36 36 35 30 24 18 9 1 1 0 358 169 161 152 140 121 108 106 103 95 93 102 116 128 138 140 142 144 142 137 136 134 132 142 153 152 150 152 152
54 54 54 54 54 55 55 55 54 53 53 53 53 51 50 49 47 42 36 34 34 34 35 36 35 33 32 31 30 30 32 33 33 33 36 39 41 40 38 34 26 12 2 5 12 11 139 157 149 139 126 111 105 108 104 97 99 109 114 118 123 128 131 130 126 126 126 126 132 139 137 136 139 142
60 59 59 57 56 57 57 56 54 54 54 53 52 51 50 49 47 42 37 35 34 33 34 36 35 34 33 32 31 32 33 34 33 34 37 41 44 44 41 39 39 30 16 15 22 24 143 167 154 136 132 125 116 106 100 101 109 112 108 107 112 117 120 121 120 121 124 126 128 130 129 130 134 134
64 63 62 60 60 60 59 57 55 54 53 52 51 50 49 48 47 43 37 35 35 35 34 33 32 32 33 33 32 32 32 32 32 34 38 40 43 46 44 43 45 43 37 36 36 34 119 149 137 128 129 126 122 115 106 102 104 105 106 106 108 111 114 117 118 120 122 123 123 125 125 125 128 129
70 69 67 65 64 62 60 57 55 53 52 52 51 49 49 49 47 43 38 36 35 35 34 31 29 31 34 36 37 36 34 33 33 34 37 37 38 40 43 44 46 48 49 52 56 64 87 111 120 120 113 109 112 112 110 104 99 100 106 108 108 111 115 118 119 121 123 124 125 126 127 129 132 134
74 72 70 67 64 62 60 58 55 53 52 52 51 49 49 49 49 46 41 38 35 34 32 30 28 30 33 36 38 38 37 36 34 34 34 34 34 34 36 40 43 46 52 60 68 77 84 95 110 113 106 100 100 101 104 106 103 103 108 110 111 115 119 122 124 126 128 129 131 131 133 136 139 140
74 70 68 66 64 62 59 56 53 52 51 50 49 48 49 51 51 48 46 43 41 37 32 30 30 29 31 36 37 37 38 37 35 34 34 35 35 33 35 39 39 41 50 62 73 79 82 86 95 101 101 99 98 98 104 106 104 104 109 112 113 116 123 128 130 130 132 133 132 132 136 140 142 143
70 66 63 61 58 56 54 51 48 47 46 46 46 47 48 50 50 49 47 45 44 42 38 36 34 30 30 35 37 38 39 38 37 37 38 39 39 36 36 40 41 41 47 56 67 77 84 86 87 90 92 94 97 102 104 101 97 101 108 111 110 113 125 132 130 130 134 135 133 134 138 142 145 144
63 58 55 52 49 47 47 45 44 42 42 42 44 45 46 47 47 46 44 41 41 42 41 39 37 34 31 32 36 40 42 40 41 44 43 41 43 43 42 42 43 44 48 54 61 71 80 85 87 86 86 88 92 97 97 94 94 102 109 112 110 109 119 129 131 134 139 140 138 136 135 139 142 140
60 54 52 48 45 44 43 42 41 40 40 40 40 41 43 45 45 44 43 42 42 43 43 42 40 38 35 32 35 40 43 41 41 45 45 42 44 47 48 47 46 48 52 57 63 69 74 79 83 83 84 85 85 83 84 89 96 101 107 113 114 111 116 127 133 140 145 147 145 135 124 127 134 132
57 54 51 48 45 43 42 41 39 38 38 38 37 37 40 43 44 43 43 44 44 44 44 43 42 41 38 34 34 38 42 42 40 40 42 42 45 49 51 52 52 53 55 58 64 72 76 80 81 79 75 74 75 73 72 80 90 95 99 105 111 114 118 123 129 133 139 145 146 136 127 129 133 134
56 52 50 47 44 42 40 39 37 37 37 35 35 35 35 37 39 39 42 45 46 46 44 43 43 42 40 36 34 34 38 40 40 39 40 42 44 47 51 55 57 59 62 62 63 70 76 81 85 84 76 69 65 60 60 70 84 94 92 92 101 110 115 120 124 126 129 137 145 144 139 134 132 133
56 53 50 47 44 41 40 39 36 36 36 35 34 35 33 33 35 38 41 44 46 47 45 42 42 42 41 38 34 32 34 37 38 40 40 41 43 45 47 52 56 60 64 65 62 64 69 73 79 85 85 80 74 67 69 78 90 99 99 96 100 109 117 123 127 139 152 153 150 148 144 137 133 134
56 53 50 47 44 42 41 39 36 35 34 33 33 34 33 33 35 38 40 42 44 45 43 40 39 39 39 39 35 32 33 35 36 38 39 39 42 45 45 47 52 57 64 67 64 61 61 60 62 70 78 80 85 98 100 96 97 102 106 108 116 132 142 143 146 163 171 162 149 145 142 138 135 134
57 54 50 47 44 42 41 39 37 35 33 32 31 32 32 33 35 37 38 39 41 42 41 38 37 36 37 38 36 31 33 34 33 34 35 35 37 41 44 47 48 52 61 65 60 57 55 46 40 47 58 63 78 107 120 116 111 113 114 115 131 162 167 164 163 164 159 152 146 142 139 136 133 131
57 53 50 48 45 43 41 38 36 35 34 33 34 35 34 34 37 39 39 36 38 41 40 38 37 35 35 39 40 36 34 35 33 30 31 32 33 34 38 44 46 48 53 54 48 46 41 28 21 34 72 90 104 118 120 116 113 117 125 138 168 191 192 185 179 170 157 151 147 141 136 136 136 135
55 52 49 48 46 44 42 40 38 37 36 35 37 39 39 38 39 42 40 37 37 39 38 36 37 36 35 40 44 41 37 36 35 32 30 31 31 31 33 38 42 43 45 44 39 34 27 22 30 68 108 121 124 123 117 112 109 103 98 109 151 189 199 199 199 190 169 157 150 142 138 143 146 147
55 53 51 50 50 49 46 43 41 40 38 37 39 41 41 39 40 41 40 37 38 39 36 34 35 35 35 38 42 41 37 35 35 34 33 32 31 31 33 36 36 35 37 38 34 29 33 44 62 89 109 122 127 118 105 108 112 110 102 97 104 129 166 190 201 194 175 164 159 153 149 152 158 168
55 54 53 53 54 53 51 48 45 42 41 41 41 41 39 37 38 39 38 36 37 38 36 34 33 33 35 37 38 37 35 36 35 33 32 33 33 32 32 31 28 28 33 38 36 33 44 63 79 91 94 87 74 88 103 111 116 118 116 108 105 111 122 143 168 175 170 169 172 173 171 171 176 188
54 53 52 52 54 54 53 52 50 47 45 43 42 40 38 37 37 38 38 38 37 36 36 34 33 32 34 36 36 35 36 37 35 30 28 31 33 33 31 25 20 22 29 36 44 48 56 70 74 57 43 42 58 93 111 118 118 116 117 113 113 118 122 127 142 153 158 168 181 187 188 189 191 194
49 50 51 50 51 52 53 52 50 47 45 43 41 39 37 37 36 35 35 36 36 36 35 32 30 29 31 33 35 36 37 38 34 29 28 30 32 35 34 30 27 31 31 33 43 54 62 72 68 43 35 51 91 110 115 118 118 119 124 125 126 130 133 137 146 151 153 167 184 189 192 199 204 206